Time,TemperatureF,DewpointF,PressureIn,WindDirection,WindDirectionDegrees,WindSpeedMPH,WindSpeedGustMPH,Humidity,HourlyPrecipIn,Conditions,Clouds,dailyrainin,SoftwareType,DateUTC
2013-01-16 00:00:00,19.0,1.6,30.68,NNW,347,2.0,2.0,46,0.00,,---,0.00,VWS V14.01,2013-01-16 07:00:00,
2013-01-16 00:05:00,18.7,1.8,30.68,NNW,345,1.0,1.0,47,0.00,,---,0.00,VWS V14.01,2013-01-16 07:05:00,
2013-01-16 00:10:00,18.3,1.9,30.68,NNW,338,0.0,1.0,48,0.00,,---,0.00,VWS V14.01,2013-01-16 07:10:00,
2013-01-16 00:15:00,18.0,2.1,30.68,NNW,338,0.0,2.0,49,0.00,,---,0.00,VWS V14.01,2013-01-16 07:15:00,
2013-01-16 00:20:00,18.2,2.3,30.68,North,5,0.0,1.0,49,0.00,,---,0.00,VWS V14.01,2013-01-16 07:20:00,
2013-01-16 00:25:00,18.1,2.2,30.69,North,5,0.0,1.0,49,0.00,,---,0.00,VWS V14.01,2013-01-16 07:25:00,
2013-01-16 00:30:00,17.9,2.0,30.68,North,5,0.0,1.0,49,0.00,,---,0.00,VWS V14.01,2013-01-16 07:30:00,
2013-01-16 00:35:00,17.7,2.2,30.68,North,9,0.0,1.0,50,0.00,,---,0.00,VWS V14.01,2013-01-16 07:35:00,
2013-01-16 00:40:00,17.6,2.1,30.68,North,350,2.0,2.0,50,0.00,,---,0.00,VWS V14.01,2013-01-16 07:40:00,
2013-01-16 00:45:00,17.6,2.1,30.68,North,350,0.0,1.0,50,0.00,,---,0.00,VWS V14.01,2013-01-16 07:45:00,
2013-01-16 00:50:00,17.4,2.0,30.67,NNE,13,0.0,0.0,50,0.00,,---,0.00,VWS V14.01,2013-01-16 07:50:00,
2013-01-16 00:55:00,17.3,1.9,30.67,North,360,0.0,1.0,50,0.00,,---,0.00,VWS V14.01,2013-01-16 07:55:00,
2013-01-16 01:00:00,17.0,2.0,30.67,North,360,0.0,0.0,51,0.00,,---,0.00,VWS V14.01,2013-01-16 08:00:00,
2013-01-16 01:05:00,16.8,1.8,30.67,North,360,0.0,0.0,51,0.00,,---,0.00,VWS V14.01,2013-01-16 08:05:00,
2013-01-16 01:10:00,16.5,2.4,30.67,North,360,2.0,2.0,53,0.00,,---,0.00,VWS V14.01,2013-01-16 08:10:00,
2013-01-16 01:15:00,16.7,2.1,30.67,North,360,0.0,0.0,52,0.00,,---,0.00,VWS V14.01,2013-01-16 08:15:00,
2013-01-16 01:20:00,16.5,2.0,30.67,North,360,0.0,0.0,52,0.00,,---,0.00,VWS V14.01,2013-01-16 08:20:00,
2013-01-16 01:25:00,15.9,1.8,30.67,North,360,0.0,0.0,53,0.00,,---,0.00,VWS V14.01,2013-01-16 08:25:00,
2013-01-16 01:30:00,15.5,2.2,30.67,North,360,0.0,0.0,55,0.00,,---,0.00,VWS V14.01,2013-01-16 08:30:00,
2013-01-16 01:35:00,15.5,2.2,30.68,North,360,0.0,0.0,55,0.00,,---,0.00,VWS V14.01,2013-01-16 08:35:00,
2013-01-16 01:40:00,15.5,2.2,30.68,North,360,0.0,2.0,55,0.00,,---,0.00,VWS V14.01,2013-01-16 08:40:00,
2013-01-16 01:45:00,15.5,2.2,30.68,North,360,2.0,2.0,55,0.00,,---,0.00,VWS V14.01,2013-01-16 08:45:00,
2013-01-16 01:50:00,16.4,2.7,30.68,North,355,1.0,2.0,54,0.00,,---,0.00,VWS V14.01,2013-01-16 08:50:00,
2013-01-16 01:55:00,16.6,2.5,30.68,North,355,0.0,2.0,53,0.00,,---,0.00,VWS V14.01,2013-01-16 08:55:00,
2013-01-16 02:00:00,16.8,2.2,30.68,North,360,3.0,4.0,52,0.00,,---,0.00,VWS V14.01,2013-01-16 09:00:00,
2013-01-16 02:05:00,17.4,2.4,30.68,NNW,330,2.0,3.0,51,0.00,,---,0.00,VWS V14.01,2013-01-16 09:05:00,
2013-01-16 02:10:00,17.7,2.2,30.67,NNW,342,1.0,1.0,50,0.00,,---,0.00,VWS V14.01,2013-01-16 09:10:00,
2013-01-16 02:15:00,17.9,2.0,30.67,North,5,0.0,1.0,49,0.00,,---,0.00,VWS V14.01,2013-01-16 09:15:00,
2013-01-16 02:20:00,17.7,2.2,30.68,North,355,0.0,1.0,50,0.00,,---,0.00,VWS V14.01,2013-01-16 09:20:00,
2013-01-16 02:25:00,17.7,2.2,30.68,North,360,0.0,1.0,50,0.00,,---,0.00,VWS V14.01,2013-01-16 09:25:00,
2013-01-16 02:30:00,17.8,2.3,30.68,NNE,30,0.0,0.0,50,0.00,,---,0.00,VWS V14.01,2013-01-16 09:30:00,
2013-01-16 02:35:00,16.7,1.7,30.69,WNW,299,0.0,0.0,51,0.00,,---,0.00,VWS V14.01,2013-01-16 09:35:00,
2013-01-16 02:40:00,16.1,2.0,30.68,WNW,295,0.0,0.0,53,0.00,,---,0.00,VWS V14.01,2013-01-16 09:40:00,
2013-01-16 02:45:00,15.9,2.2,30.68,WNW,295,0.0,0.0,54,0.00,,---,0.00,VWS V14.01,2013-01-16 09:45:00,
2013-01-16 02:50:00,15.6,2.3,30.68,South,186,0.0,1.0,55,0.00,,---,0.00,VWS V14.01,2013-01-16 09:50:00,
2013-01-16 02:55:00,15.4,2.1,30.68,South,186,0.0,0.0,55,0.00,,---,0.00,VWS V14.01,2013-01-16 09:55:00,
2013-01-16 03:00:00,15.1,2.2,30.69,South,186,0.0,0.0,56,0.00,,---,0.00,VWS V14.01,2013-01-16 10:00:00,
2013-01-16 03:05:00,15.0,2.1,30.68,South,186,0.0,1.0,56,0.00,,---,0.00,VWS V14.01,2013-01-16 10:05:00,
2013-01-16 03:10:00,15.2,2.7,30.69,South,186,0.0,0.0,57,0.00,,---,0.00,VWS V14.01,2013-01-16 10:10:00,
2013-01-16 03:15:00,15.0,2.1,30.68,SE,146,0.0,0.0,56,0.00,,---,0.00,VWS V14.01,2013-01-16 10:15:00,
2013-01-16 03:20:00,14.6,2.2,30.69,SE,146,0.0,0.0,57,0.00,,---,0.00,VWS V14.01,2013-01-16 10:20:00,
2013-01-16 03:25:00,14.6,2.2,30.69,SE,146,0.0,0.0,57,0.00,,---,0.00,VWS V14.01,2013-01-16 10:25:00,
2013-01-16 03:30:00,14.4,2.3,30.69,SE,146,0.0,0.0,58,0.00,,---,0.00,VWS V14.01,2013-01-16 10:30:00,
2013-01-16 03:35:00,14.4,2.3,30.68,SE,146,0.0,0.0,58,0.00,,---,0.00,VWS V14.01,2013-01-16 10:35:00,
2013-01-16 03:40:00,14.1,2.4,30.69,SE,146,0.0,0.0,59,0.00,,---,0.00,VWS V14.01,2013-01-16 10:40:00,
2013-01-16 03:45:00,13.7,2.8,30.68,SE,146,0.0,0.0,61,0.00,,---,0.00,VWS V14.01,2013-01-16 10:45:00,
2013-01-16 03:50:00,13.4,2.5,30.68,SE,146,0.0,0.0,61,0.00,,---,0.00,VWS V14.01,2013-01-16 10:50:00,
2013-01-16 03:55:00,13.5,2.6,30.68,SE,146,0.0,0.0,61,0.00,,---,0.00,VWS V14.01,2013-01-16 10:55:00,
2013-01-16 04:00:00,13.4,2.5,30.68,SE,146,0.0,0.0,61,0.00,,---,0.00,VWS V14.01,2013-01-16 11:00:00,
2013-01-16 04:05:00,13.4,2.8,30.68,SE,146,0.0,0.0,62,0.00,,---,0.00,VWS V14.01,2013-01-16 11:05:00,
2013-01-16 04:10:00,13.1,2.5,30.68,SE,146,0.0,0.0,62,0.00,,---,0.00,VWS V14.01,2013-01-16 11:10:00,
2013-01-16 04:15:00,13.0,2.8,30.68,SE,146,0.0,0.0,63,0.00,,---,0.00,VWS V14.01,2013-01-16 11:15:00,
2013-01-16 04:20:00,12.4,2.6,30.68,SE,146,0.0,0.0,64,0.00,,---,0.00,VWS V14.01,2013-01-16 11:20:00,
2013-01-16 04:25:00,12.5,3.0,30.68,SE,146,0.0,0.0,65,0.00,,---,0.00,VWS V14.01,2013-01-16 11:25:00,
2013-01-16 04:30:00,12.4,3.2,30.68,SE,146,0.0,0.0,66,0.00,,---,0.00,VWS V14.01,2013-01-16 11:30:00,
2013-01-16 04:35:00,12.6,3.1,30.68,SE,146,0.0,0.0,65,0.00,,---,0.00,VWS V14.01,2013-01-16 11:35:00,
2013-01-16 04:40:00,12.5,3.0,30.68,SE,146,0.0,0.0,65,0.00,,---,0.00,VWS V14.01,2013-01-16 11:40:00,
2013-01-16 04:45:00,12.3,3.1,30.67,SE,146,0.0,0.0,66,0.00,,---,0.00,VWS V14.01,2013-01-16 11:45:00,
2013-01-16 04:50:00,12.0,3.2,30.67,SE,146,0.0,0.0,67,0.00,,---,0.00,VWS V14.01,2013-01-16 11:50:00,
2013-01-16 04:55:00,12.6,3.7,30.67,SE,146,0.0,0.0,67,0.00,,---,0.00,VWS V14.01,2013-01-16 11:55:00,
2013-01-16 05:00:00,12.7,3.5,30.67,SE,146,0.0,0.0,66,0.00,,---,0.00,VWS V14.01,2013-01-16 12:00:00,
2013-01-16 05:05:00,12.5,3.3,30.67,SE,146,0.0,0.0,66,0.00,,---,0.00,VWS V14.01,2013-01-16 12:05:00,
2013-01-16 05:10:00,12.1,2.9,30.67,SE,146,0.0,0.0,66,0.00,,---,0.00,VWS V14.01,2013-01-16 12:10:00,
2013-01-16 05:15:00,12.1,3.3,30.68,SE,146,0.0,0.0,67,0.00,,---,0.00,VWS V14.01,2013-01-16 12:15:00,
2013-01-16 05:20:00,11.7,3.2,30.68,SE,146,0.0,0.0,68,0.00,,---,0.00,VWS V14.01,2013-01-16 12:20:00,
2013-01-16 05:25:00,11.8,3.3,30.68,SE,146,0.0,0.0,68,0.00,,---,0.00,VWS V14.01,2013-01-16 12:25:00,
2013-01-16 05:30:00,12.1,3.6,30.67,SE,146,0.0,0.0,68,0.00,,---,0.00,VWS V14.01,2013-01-16 12:30:00,
2013-01-16 05:35:00,12.2,3.7,30.68,SE,146,0.0,0.0,68,0.00,,---,0.00,VWS V14.01,2013-01-16 12:35:00,
2013-01-16 05:40:00,11.7,2.9,30.68,SE,146,0.0,0.0,67,0.00,,---,0.00,VWS V14.01,2013-01-16 12:40:00,
2013-01-16 05:45:00,11.4,3.5,30.68,SE,146,0.0,0.0,70,0.00,,---,0.00,VWS V14.01,2013-01-16 12:45:00,
2013-01-16 05:50:00,11.7,3.8,30.68,SE,146,0.0,0.0,70,0.00,,---,0.00,VWS V14.01,2013-01-16 12:50:00,
2013-01-16 05:55:00,11.8,3.6,30.68,SE,146,0.0,0.0,69,0.00,,---,0.00,VWS V14.01,2013-01-16 12:55:00,
2013-01-16 06:00:00,11.9,3.7,30.68,SE,146,0.0,0.0,69,0.00,,---,0.00,VWS V14.01,2013-01-16 13:00:00,
2013-01-16 06:05:00,12.2,4.0,30.68,SE,146,0.0,0.0,69,0.00,,---,0.00,VWS V14.01,2013-01-16 13:05:00,
2013-01-16 06:10:00,11.7,3.5,30.68,SE,146,0.0,0.0,69,0.00,,---,0.00,VWS V14.01,2013-01-16 13:10:00,
2013-01-16 06:15:00,11.2,3.0,30.68,SE,146,0.0,0.0,69,0.00,,---,0.00,VWS V14.01,2013-01-16 13:15:00,
2013-01-16 06:20:00,10.8,3.3,30.68,SE,146,0.0,0.0,71,0.00,,---,0.00,VWS V14.01,2013-01-16 13:20:00,
2013-01-16 06:25:00,11.0,4.1,30.68,SE,146,0.0,0.0,73,0.00,,---,0.00,VWS V14.01,2013-01-16 13:25:00,
2013-01-16 06:30:00,11.0,3.8,30.68,SE,146,0.0,0.0,72,0.00,,---,0.00,VWS V14.01,2013-01-16 13:30:00,
2013-01-16 06:35:00,11.0,3.5,30.69,SE,146,0.0,0.0,71,0.00,,---,0.00,VWS V14.01,2013-01-16 13:35:00,
2013-01-16 06:40:00,10.9,3.4,30.69,SE,146,0.0,0.0,71,0.00,,---,0.00,VWS V14.01,2013-01-16 13:40:00,
2013-01-16 06:45:00,10.7,3.2,30.69,SE,146,0.0,0.0,71,0.00,,---,0.00,VWS V14.01,2013-01-16 13:45:00,
2013-01-16 06:50:00,10.7,3.2,30.69,SE,146,0.0,0.0,71,0.00,,---,0.00,VWS V14.01,2013-01-16 13:50:00,
2013-01-16 06:55:00,10.5,3.0,30.69,SE,146,0.0,0.0,71,0.00,,---,0.00,VWS V14.01,2013-01-16 13:55:00,
2013-01-16 07:00:00,10.1,2.9,30.70,SE,146,0.0,0.0,72,0.00,,---,0.00,VWS V14.01,2013-01-16 14:00:00,
2013-01-16 07:05:00,10.1,3.2,30.70,SE,146,0.0,0.0,73,0.00,,---,0.00,VWS V14.01,2013-01-16 14:05:00,
2013-01-16 07:10:00,10.0,3.1,30.70,SE,146,0.0,0.0,73,0.00,,---,0.00,VWS V14.01,2013-01-16 14:10:00,
2013-01-16 07:15:00,10.0,3.1,30.70,WNW,294,0.0,0.0,73,0.00,,---,0.00,VWS V14.01,2013-01-16 14:15:00,
2013-01-16 07:20:00,9.6,2.4,30.71,WNW,287,0.0,0.0,72,0.00,,---,0.00,VWS V14.01,2013-01-16 14:20:00,
2013-01-16 07:25:00,9.2,2.0,30.71,NW,308,0.0,2.0,72,0.00,,---,0.00,VWS V14.01,2013-01-16 14:25:00,
2013-01-16 07:30:00,9.1,2.2,30.71,NW,308,0.0,0.0,73,0.00,,---,0.00,VWS V14.01,2013-01-16 14:30:00,
2013-01-16 07:35:00,9.2,2.6,30.71,NW,308,0.0,0.0,74,0.00,,---,0.00,VWS V14.01,2013-01-16 14:35:00,
2013-01-16 07:40:00,9.4,2.8,30.71,NW,308,0.0,0.0,74,0.00,,---,0.00,VWS V14.01,2013-01-16 14:40:00,
2013-01-16 07:45:00,10.0,3.1,30.71,NW,315,0.0,0.0,73,0.00,,---,0.00,VWS V14.01,2013-01-16 14:45:00,
2013-01-16 07:50:00,10.0,3.1,30.71,NW,315,0.0,0.0,73,0.00,,---,0.00,VWS V14.01,2013-01-16 14:50:00,
2013-01-16 07:55:00,10.8,3.9,30.71,NW,315,0.0,0.0,73,0.00,,---,0.00,VWS V14.01,2013-01-16 14:55:00,
2013-01-16 08:00:00,10.9,3.4,30.71,NW,315,0.0,0.0,71,0.00,,---,0.00,VWS V14.01,2013-01-16 15:00:00,
2013-01-16 08:05:00,11.1,3.8,30.72,NW,315,0.0,0.0,72,0.00,,---,0.00,VWS V14.01,2013-01-16 15:05:00,
2013-01-16 08:10:00,11.7,4.1,30.72,NW,315,0.0,0.0,71,0.00,,---,0.00,VWS V14.01,2013-01-16 15:10:00,
2013-01-16 08:15:00,12.2,4.3,30.72,NW,313,0.0,0.0,70,0.00,,---,0.00,VWS V14.01,2013-01-16 15:15:00,
2013-01-16 08:20:00,12.8,4.2,30.73,NW,313,0.0,0.0,68,0.00,,---,0.00,VWS V14.01,2013-01-16 15:20:00,
2013-01-16 08:25:00,13.4,4.8,30.73,NW,313,1.0,1.0,68,0.00,,---,0.00,VWS V14.01,2013-01-16 15:25:00,
2013-01-16 08:30:00,13.7,4.1,30.73,NW,312,0.0,1.0,65,0.00,,---,0.00,VWS V14.01,2013-01-16 15:30:00,
2013-01-16 08:35:00,14.2,4.9,30.73,NW,311,0.0,1.0,66,0.00,,---,0.00,VWS V14.01,2013-01-16 15:35:00,
2013-01-16 08:40:00,14.9,4.9,30.73,South,176,1.0,1.0,64,0.00,,---,0.00,VWS V14.01,2013-01-16 15:40:00,
2013-01-16 08:45:00,15.3,4.6,30.73,SW,214,0.0,0.0,62,0.00,,---,0.00,VWS V14.01,2013-01-16 15:45:00,
2013-01-16 08:50:00,16.0,5.3,30.74,SSW,213,0.0,1.0,62,0.00,,---,0.00,VWS V14.01,2013-01-16 15:50:00,
2013-01-16 08:55:00,16.7,5.2,30.74,SW,214,1.0,2.0,60,0.00,,---,0.00,VWS V14.01,2013-01-16 15:55:00,
2013-01-16 09:00:00,17.0,5.5,30.74,SSW,213,0.0,0.0,60,0.00,,---,0.00,VWS V14.01,2013-01-16 16:00:00,
2013-01-16 09:05:00,18.1,5.4,30.74,WNW,301,0.0,1.0,57,0.00,,---,0.00,VWS V14.01,2013-01-16 16:05:00,
2013-01-16 09:10:00,18.7,6.0,30.74,WNW,301,0.0,0.0,57,0.00,,---,0.00,VWS V14.01,2013-01-16 16:10:00,
2013-01-16 09:15:00,19.1,5.6,30.74,WNW,301,0.0,1.0,55,0.00,,---,0.00,VWS V14.01,2013-01-16 16:15:00,
2013-01-16 09:20:00,19.3,5.4,30.74,WSW,251,0.0,3.0,54,0.00,,---,0.00,VWS V14.01,2013-01-16 16:20:00,
2013-01-16 09:25:00,19.6,5.7,30.74,SW,234,1.0,3.0,54,0.00,,---,0.00,VWS V14.01,2013-01-16 16:25:00,
2013-01-16 09:30:00,20.1,6.1,30.74,SW,233,2.0,2.0,54,0.00,,---,0.00,VWS V14.01,2013-01-16 16:30:00,
2013-01-16 09:35:00,20.3,5.5,30.74,SW,225,0.0,2.0,52,0.00,,---,0.00,VWS V14.01,2013-01-16 16:35:00,
2013-01-16 09:40:00,20.6,5.3,30.74,SW,221,0.0,2.0,51,0.00,,---,0.00,VWS V14.01,2013-01-16 16:40:00,
2013-01-16 09:45:00,22.0,6.7,30.74,SSW,209,0.0,0.0,51,0.00,,---,0.00,VWS V14.01,2013-01-16 16:45:00,
2013-01-16 09:50:00,22.3,6.1,30.74,West,259,0.0,0.0,49,0.00,,---,0.00,VWS V14.01,2013-01-16 16:50:00,
2013-01-16 09:55:00,22.8,6.1,30.74,WNW,296,0.0,2.0,48,0.00,,---,0.00,VWS V14.01,2013-01-16 16:55:00,
2013-01-16 10:00:00,22.7,5.5,30.74,West,261,1.0,3.0,47,0.00,,---,0.00,VWS V14.01,2013-01-16 17:00:00,
2013-01-16 10:05:00,22.9,5.7,30.73,NW,306,0.0,0.0,47,0.00,,---,0.00,VWS V14.01,2013-01-16 17:05:00,
2013-01-16 10:10:00,23.8,6.1,30.73,WNW,296,0.0,1.0,46,0.00,,---,0.00,VWS V14.01,2013-01-16 17:10:00,
2013-01-16 10:15:00,24.2,5.9,30.73,West,280,1.0,2.0,45,0.00,,---,0.00,VWS V14.01,2013-01-16 17:15:00,
2013-01-16 10:20:00,24.1,5.3,30.73,South,190,1.0,1.0,44,0.00,,---,0.00,VWS V14.01,2013-01-16 17:20:00,
2013-01-16 10:25:00,24.5,5.7,30.72,NNW,346,0.0,1.0,44,0.00,,---,0.00,VWS V14.01,2013-01-16 17:25:00,
2013-01-16 10:30:00,24.5,4.7,30.72,WNW,289,0.0,1.0,42,0.00,,---,0.00,VWS V14.01,2013-01-16 17:30:00,
2013-01-16 10:35:00,24.5,4.7,30.72,NW,325,0.0,1.0,42,0.00,,---,0.00,VWS V14.01,2013-01-16 17:35:00,
2013-01-16 10:40:00,25.6,6.2,30.71,NE,36,1.0,1.0,43,0.00,,---,0.00,VWS V14.01,2013-01-16 17:40:00,
2013-01-16 10:45:00,26.4,6.4,30.71,West,269,1.0,2.0,42,0.00,,---,0.00,VWS V14.01,2013-01-16 17:45:00,
2013-01-16 10:50:00,27.0,5.9,30.70,NNW,346,1.0,5.0,40,0.00,,---,0.00,VWS V14.01,2013-01-16 17:50:00,
2013-01-16 10:55:00,26.8,5.7,30.70,NE,42,0.0,3.0,40,0.00,,---,0.00,VWS V14.01,2013-01-16 17:55:00,
2013-01-16 11:00:00,27.5,5.8,30.70,East,88,1.0,1.0,39,0.00,,---,0.00,VWS V14.01,2013-01-16 18:00:00,
2013-01-16 11:05:00,28.2,6.4,30.69,NNW,338,3.0,3.0,39,0.00,,---,0.00,VWS V14.01,2013-01-16 18:05:00,
2013-01-16 11:10:00,28.4,6.6,30.69,NE,44,1.0,3.0,39,0.00,,---,0.00,VWS V14.01,2013-01-16 18:10:00,
2013-01-16 11:15:00,28.0,6.3,30.69,NNE,25,0.0,1.0,39,0.00,,---,0.00,VWS V14.01,2013-01-16 18:15:00,
2013-01-16 11:20:00,28.6,6.2,30.69,NNW,342,0.0,0.0,38,0.00,,---,0.00,VWS V14.01,2013-01-16 18:20:00,
2013-01-16 11:25:00,29.3,6.3,30.68,NW,325,0.0,0.0,37,0.00,,---,0.00,VWS V14.01,2013-01-16 18:25:00,
2013-01-16 11:30:00,29.3,6.3,30.68,NNW,336,1.0,2.0,37,0.00,,---,0.00,VWS V14.01,2013-01-16 18:30:00,
2013-01-16 11:35:00,30.1,7.0,30.67,NNW,340,2.0,3.0,37,0.00,,---,0.00,VWS V14.01,2013-01-16 18:35:00,
2013-01-16 11:40:00,29.9,7.4,30.67,NNW,347,3.0,4.0,38,0.00,,---,0.00,VWS V14.01,2013-01-16 18:40:00,
2013-01-16 11:45:00,30.2,7.7,30.67,North,355,3.0,5.0,38,0.00,,---,0.00,VWS V14.01,2013-01-16 18:45:00,
2013-01-16 11:50:00,30.7,8.1,30.66,West,269,1.0,2.0,38,0.00,,---,0.00,VWS V14.01,2013-01-16 18:50:00,
2013-01-16 11:55:00,31.2,7.4,30.66,ENE,58,0.0,3.0,36,0.00,,---,0.00,VWS V14.01,2013-01-16 18:55:00,
2013-01-16 12:00:00,31.0,6.6,30.66,NNW,343,1.0,1.0,35,0.00,,---,0.00,VWS V14.01,2013-01-16 19:00:00,
2013-01-16 12:05:00,32.5,8.5,30.66,West,275,2.0,2.0,36,0.00,,---,0.00,VWS V14.01,2013-01-16 19:05:00,
2013-01-16 12:10:00,32.7,8.1,30.65,WNW,290,3.0,4.0,35,0.00,,---,0.00,VWS V14.01,2013-01-16 19:10:00,
2013-01-16 12:15:00,32.2,7.6,30.65,NW,313,1.0,2.0,35,0.00,,---,0.00,VWS V14.01,2013-01-16 19:15:00,
2013-01-16 12:20:00,32.3,8.4,30.65,NW,314,2.0,4.0,36,0.00,,---,0.00,VWS V14.01,2013-01-16 19:20:00,
2013-01-16 12:25:00,32.7,8.7,30.64,NNW,329,4.0,5.0,36,0.00,,---,0.00,VWS V14.01,2013-01-16 19:25:00,
2013-01-16 12:30:00,32.9,8.3,30.64,NNW,341,3.0,5.0,35,0.00,,---,0.00,VWS V14.01,2013-01-16 19:30:00,
2013-01-16 12:35:00,32.5,8.5,30.64,North,5,4.0,4.0,36,0.00,,---,0.00,VWS V14.01,2013-01-16 19:35:00,
2013-01-16 12:40:00,33.0,8.4,30.63,WNW,294,1.0,3.0,35,0.00,,---,0.00,VWS V14.01,2013-01-16 19:40:00,
2013-01-16 12:45:00,33.2,8.5,30.63,NNW,333,1.0,4.0,35,0.00,,---,0.00,VWS V14.01,2013-01-16 19:45:00,
2013-01-16 12:50:00,33.2,8.5,30.62,NW,311,1.0,2.0,35,0.00,,---,0.00,VWS V14.01,2013-01-16 19:50:00,
2013-01-16 12:55:00,33.4,8.7,30.62,NNW,343,0.0,3.0,35,0.00,,---,0.00,VWS V14.01,2013-01-16 19:55:00,
2013-01-16 13:00:00,33.4,8.7,30.62,North,350,2.0,5.0,35,0.00,,---,0.00,VWS V14.01,2013-01-16 20:00:00,
2013-01-16 13:05:00,33.9,9.1,30.61,NW,304,1.0,3.0,35,0.00,,---,0.00,VWS V14.01,2013-01-16 20:05:00,
2013-01-16 13:10:00,34.7,9.2,30.61,NNW,327,2.0,5.0,34,0.00,,---,0.00,VWS V14.01,2013-01-16 20:10:00,
2013-01-16 13:15:00,34.6,9.8,30.61,West,269,1.0,2.0,35,0.00,,---,0.00,VWS V14.01,2013-01-16 20:15:00,
2013-01-16 13:20:00,34.9,9.4,30.61,North,360,1.0,2.0,34,0.00,,---,0.00,VWS V14.01,2013-01-16 20:20:00,
2013-01-16 13:25:00,35.5,9.3,30.61,West,275,1.0,2.0,33,0.00,,---,0.00,VWS V14.01,2013-01-16 20:25:00,
2013-01-16 13:30:00,35.0,8.8,30.60,NNW,347,5.0,5.0,33,0.00,,---,0.00,VWS V14.01,2013-01-16 20:30:00,
2013-01-16 13:34:00,35.4,9.8,30.60,NW,316,1.0,2.0,34,0.00,,---,0.00,VWS V14.01,2013-01-16 20:34:00,
2013-01-16 13:35:00,35.4,9.8,30.60,North,355,2.0,5.0,34,0.00,,---,0.00,VWS V14.01,2013-01-16 20:35:00,
2013-01-16 13:39:00,36.4,10.1,30.60,WSW,240,2.0,3.0,33,0.00,,---,0.00,VWS V14.01,2013-01-16 20:39:00,
2013-01-16 13:40:00,36.4,10.7,30.60,SSW,205,1.0,3.0,34,0.00,,---,0.00,VWS V14.01,2013-01-16 20:40:00,
2013-01-16 13:44:00,36.3,10.0,30.59,NNW,338,2.0,2.0,33,0.00,,---,0.00,VWS V14.01,2013-01-16 20:44:00,
2013-01-16 13:45:00,36.4,10.1,30.59,NNW,337,2.0,5.0,33,0.00,,---,0.00,VWS V14.01,2013-01-16 20:45:00,
2013-01-16 13:49:00,36.1,9.8,30.59,NE,42,0.0,4.0,33,0.00,,---,0.00,VWS V14.01,2013-01-16 20:49:00,
2013-01-16 13:50:00,36.1,9.8,30.59,NE,40,4.0,4.0,33,0.00,,---,0.00,VWS V14.01,2013-01-16 20:50:00,
2013-01-16 13:54:00,36.3,10.0,30.59,NW,312,0.0,2.0,33,0.00,,---,0.00,VWS V14.01,2013-01-16 20:54:00,
2013-01-16 13:55:00,36.4,10.1,30.59,NW,323,2.0,6.0,33,0.00,,---,0.00,VWS V14.01,2013-01-16 20:55:00,
2013-01-16 13:59:00,36.5,10.8,30.58,East,88,2.0,2.0,34,0.00,,---,0.00,VWS V14.01,2013-01-16 20:59:00,
2013-01-16 14:00:00,36.5,10.8,30.59,NNW,347,1.0,6.0,34,0.00,,---,0.00,VWS V14.01,2013-01-16 21:00:00,
2013-01-16 14:04:00,36.7,11.6,30.58,North,360,2.0,2.0,35,0.00,,---,0.00,VWS V14.01,2013-01-16 21:04:00,
2013-01-16 14:05:00,36.6,11.6,30.58,NW,317,1.0,4.0,35,0.00,,---,0.00,VWS V14.01,2013-01-16 21:05:00,
2013-01-16 14:09:00,37.6,11.1,30.57,NNE,30,2.0,3.0,33,0.00,,---,0.00,VWS V14.01,2013-01-16 21:09:00,
2013-01-16 14:10:00,37.6,11.1,30.58,NE,49,0.0,4.0,33,0.00,,---,0.00,VWS V14.01,2013-01-16 21:10:00,
2013-01-16 14:14:00,38.1,11.6,30.57,North,360,4.0,4.0,33,0.00,,---,0.00,VWS V14.01,2013-01-16 21:14:00,
2013-01-16 14:15:00,38.2,11.6,30.57,NNW,329,2.0,3.0,33,0.00,,---,0.00,VWS V14.01,2013-01-16 21:15:00,
2013-01-16 14:19:00,37.7,11.2,30.57,NNE,24,2.0,3.0,33,0.00,,---,0.00,VWS V14.01,2013-01-16 21:19:00,
2013-01-16 14:20:00,37.7,11.2,30.57,ENE,71,3.0,4.0,33,0.00,,---,0.00,VWS V14.01,2013-01-16 21:20:00,
2013-01-16 14:24:00,37.4,11.6,30.57,NW,318,1.0,3.0,34,0.00,,---,0.00,VWS V14.01,2013-01-16 21:24:00,
2013-01-16 14:25:00,37.3,11.5,30.57,ENE,61,0.0,4.0,34,0.00,,---,0.00,VWS V14.01,2013-01-16 21:25:00,
2013-01-16 14:29:00,37.9,12.1,30.57,NNW,335,3.0,3.0,34,0.00,,---,0.00,VWS V14.01,2013-01-16 21:29:00,
2013-01-16 14:30:00,37.9,12.1,30.57,NNW,342,2.0,7.0,34,0.00,,---,0.00,VWS V14.01,2013-01-16 21:30:00,
2013-01-16 14:34:00,37.6,11.1,30.57,North,355,4.0,4.0,33,0.00,,---,0.00,VWS V14.01,2013-01-16 21:34:00,
2013-01-16 14:35:00,37.8,11.3,30.57,WNW,294,2.0,3.0,33,0.00,,---,0.00,VWS V14.01,2013-01-16 21:35:00,
2013-01-16 14:39:00,37.9,12.1,30.57,North,355,0.0,4.0,34,0.00,,---,0.00,VWS V14.01,2013-01-16 21:39:00,
2013-01-16 14:40:00,37.9,12.1,30.57,North,355,2.0,5.0,34,0.00,,---,0.00,VWS V14.01,2013-01-16 21:40:00,
2013-01-16 14:44:00,37.5,11.7,30.57,NW,304,1.0,2.0,34,0.00,,---,0.00,VWS V14.01,2013-01-16 21:44:00,
2013-01-16 14:45:00,37.5,11.7,30.57,NW,304,1.0,5.0,34,0.00,,---,0.00,VWS V14.01,2013-01-16 21:45:00,
2013-01-16 14:49:00,38.2,12.3,30.57,WNW,283,0.0,2.0,34,0.00,,---,0.00,VWS V14.01,2013-01-16 21:49:00,
2013-01-16 14:50:00,38.2,13.0,30.57,NW,324,2.0,3.0,35,0.00,,---,0.00,VWS V14.01,2013-01-16 21:50:00,
2013-01-16 14:54:00,38.6,12.0,30.57,North,349,3.0,3.0,33,0.00,,---,0.00,VWS V14.01,2013-01-16 21:54:00,
2013-01-16 14:59:00,39.3,12.6,30.57,West,273,2.0,2.0,33,0.00,,---,0.00,VWS V14.01,2013-01-16 21:59:00,
2013-01-16 15:00:00,39.3,13.3,30.57,West,266,2.0,3.0,34,0.00,,---,0.00,VWS V14.01,2013-01-16 22:00:00,
2013-01-16 15:04:00,38.3,12.4,30.57,NW,321,4.0,4.0,34,0.00,,---,0.00,VWS V14.01,2013-01-16 22:04:00,
2013-01-16 15:05:00,38.4,12.5,30.57,North,355,4.0,7.0,34,0.00,,---,0.00,VWS V14.01,2013-01-16 22:05:00,
2013-01-16 15:09:00,38.2,13.0,30.57,North,355,3.0,6.0,35,0.00,,---,0.00,VWS V14.01,2013-01-16 22:09:00,
2013-01-16 15:10:00,38.2,13.0,30.57,NNE,16,5.0,7.0,35,0.00,,---,0.00,VWS V14.01,2013-01-16 22:10:00,
2013-01-16 15:14:00,38.7,13.4,30.56,NW,315,1.0,3.0,35,0.00,,---,0.00,VWS V14.01,2013-01-16 22:14:00,
2013-01-16 15:15:00,38.6,13.3,30.57,NW,323,3.0,6.0,35,0.00,,---,0.00,VWS V14.01,2013-01-16 22:15:00,
2013-01-16 15:19:00,38.9,12.9,30.56,NNE,30,1.0,3.0,34,0.00,,---,0.00,VWS V14.01,2013-01-16 22:19:00,
2013-01-16 15:20:00,38.9,12.9,30.57,NE,45,2.0,5.0,34,0.00,,---,0.00,VWS V14.01,2013-01-16 22:20:00,
2013-01-16 15:24:00,38.9,12.9,30.56,NE,43,0.0,0.0,34,0.00,,---,0.00,VWS V14.01,2013-01-16 22:24:00,
2013-01-16 15:25:00,38.9,13.6,30.56,NE,43,0.0,6.0,35,0.00,,---,0.00,VWS V14.01,2013-01-16 22:25:00,
2013-01-16 15:29:00,38.6,13.3,30.56,North,355,2.0,3.0,35,0.00,,---,0.00,VWS V14.01,2013-01-16 22:29:00,
2013-01-16 15:30:00,38.6,13.3,30.56,NW,319,3.0,3.0,35,0.00,,---,0.00,VWS V14.01,2013-01-16 22:30:00,
2013-01-16 15:34:00,38.8,14.1,30.57,North,11,2.0,3.0,36,0.00,,---,0.00,VWS V14.01,2013-01-16 22:34:00,
2013-01-16 15:35:00,38.8,13.5,30.56,NNE,12,2.0,5.0,35,0.00,,---,0.00,VWS V14.01,2013-01-16 22:35:00,
2013-01-16 15:39:00,39.3,13.9,30.56,North,355,5.0,6.0,35,0.00,,---,0.00,VWS V14.01,2013-01-16 22:39:00,
2013-01-16 15:40:00,39.3,13.9,30.56,NW,316,3.0,5.0,35,0.00,,---,0.00,VWS V14.01,2013-01-16 22:40:00,
2013-01-16 15:44:00,39.1,13.8,30.57,NNE,31,3.0,4.0,35,0.00,,---,0.00,VWS V14.01,2013-01-16 22:44:00,
2013-01-16 15:45:00,39.1,13.8,30.57,North,355,4.0,8.0,35,0.00,,---,0.00,VWS V14.01,2013-01-16 22:45:00,
2013-01-16 15:49:00,39.4,14.0,30.57,NNW,344,6.0,6.0,35,0.00,,---,0.00,VWS V14.01,2013-01-16 22:49:00,
2013-01-16 15:50:00,39.3,14.6,30.57,NNE,17,2.0,8.0,36,0.00,,---,0.00,VWS V14.01,2013-01-16 22:50:00,
2013-01-16 15:54:00,39.3,13.9,30.57,NNW,333,4.0,6.0,35,0.00,,---,0.00,VWS V14.01,2013-01-16 22:54:00,
2013-01-16 15:55:00,39.3,13.9,30.57,North,5,4.0,9.0,35,0.00,,---,0.00,VWS V14.01,2013-01-16 22:55:00,
2013-01-16 15:59:00,39.4,14.0,30.56,North,5,2.0,3.0,35,0.00,,---,0.00,VWS V14.01,2013-01-16 22:59:00,
2013-01-16 16:00:00,39.4,14.0,30.56,NNW,332,3.0,6.0,35,0.00,,---,0.00,VWS V14.01,2013-01-16 23:00:00,
2013-01-16 16:04:00,39.6,14.2,30.57,NE,45,1.0,3.0,35,0.00,,---,0.00,VWS V14.01,2013-01-16 23:04:00,
2013-01-16 16:05:00,39.5,14.1,30.57,NNW,340,1.0,4.0,35,0.00,,---,0.00,VWS V14.01,2013-01-16 23:05:00,
2013-01-16 16:09:00,39.9,13.8,30.56,North,355,5.0,5.0,34,0.00,,---,0.00,VWS V14.01,2013-01-16 23:09:00,
2013-01-16 16:10:00,39.9,13.8,30.56,North,360,5.0,6.0,34,0.00,,---,0.00,VWS V14.01,2013-01-16 23:10:00,
2013-01-16 16:14:00,39.5,14.1,30.57,NNW,340,4.0,7.0,35,0.00,,---,0.00,VWS V14.01,2013-01-16 23:14:00,
2013-01-16 16:15:00,39.5,14.1,30.57,North,5,7.0,7.0,35,0.00,,---,0.00,VWS V14.01,2013-01-16 23:15:00,
2013-01-16 16:19:00,39.1,13.8,30.56,NNW,345,2.0,3.0,35,0.00,,---,0.00,VWS V14.01,2013-01-16 23:19:00,
2013-01-16 16:20:00,39.1,13.8,30.56,NNE,25,3.0,7.0,35,0.00,,---,0.00,VWS V14.01,2013-01-16 23:20:00,
2013-01-16 16:24:00,39.0,14.3,30.56,North,355,6.0,6.0,36,0.00,,---,0.00,VWS V14.01,2013-01-16 23:24:00,
2013-01-16 16:25:00,39.0,14.3,30.56,NE,40,2.0,6.0,36,0.00,,---,0.00,VWS V14.01,2013-01-16 23:25:00,
2013-01-16 16:29:00,38.8,14.1,30.56,NNW,345,3.0,3.0,36,0.00,,---,0.00,VWS V14.01,2013-01-16 23:29:00,
2013-01-16 16:30:00,38.8,14.1,30.56,North,360,3.0,6.0,36,0.00,,---,0.00,VWS V14.01,2013-01-16 23:30:00,
2013-01-16 16:34:00,38.7,14.1,30.56,North,360,5.0,5.0,36,0.00,,---,0.00,VWS V14.01,2013-01-16 23:34:00,
2013-01-16 16:35:00,38.7,14.1,30.56,NNW,345,3.0,6.0,36,0.00,,---,0.00,VWS V14.01,2013-01-16 23:35:00,
2013-01-16 16:39:00,38.5,14.5,30.56,NNW,338,2.0,5.0,37,0.00,,---,0.00,VWS V14.01,2013-01-16 23:39:00,
2013-01-16 16:40:00,38.5,13.9,30.56,NNW,348,5.0,8.0,36,0.00,,---,0.00,VWS V14.01,2013-01-16 23:40:00,
2013-01-16 16:44:00,38.4,14.4,30.57,North,355,4.0,4.0,37,0.00,,---,0.00,VWS V14.01,2013-01-16 23:44:00,
2013-01-16 16:45:00,38.4,14.4,30.57,NNW,339,4.0,7.0,37,0.00,,---,0.00,VWS V14.01,2013-01-16 23:45:00,
2013-01-16 16:49:00,38.2,13.6,30.57,North,5,3.0,4.0,36,0.00,,---,0.00,VWS V14.01,2013-01-16 23:49:00,
2013-01-16 16:50:00,38.2,13.6,30.57,NNW,348,2.0,8.0,36,0.00,,---,0.00,VWS V14.01,2013-01-16 23:50:00,
2013-01-16 16:54:00,37.8,13.9,30.57,North,355,9.0,10.0,37,0.00,,---,0.00,VWS V14.01,2013-01-16 23:54:00,
2013-01-16 16:55:00,37.8,13.9,30.57,North,351,5.0,8.0,37,0.00,,---,0.00,VWS V14.01,2013-01-16 23:55:00,
2013-01-16 16:59:00,37.5,14.2,30.57,North,355,2.0,2.0,38,0.00,,---,0.00,VWS V14.01,2013-01-16 23:59:00,
2013-01-16 17:00:00,37.5,14.2,30.57,North,349,0.0,10.0,38,0.00,,---,0.00,VWS V14.01,2013-01-17 00:00:00,
2013-01-16 17:04:00,37.1,13.9,30.57,North,350,5.0,5.0,38,0.00,,---,0.00,VWS V14.01,2013-01-17 00:04:00,
2013-01-16 17:05:00,37.1,13.9,30.57,North,349,4.0,8.0,38,0.00,,---,0.00,VWS V14.01,2013-01-17 00:05:00,
2013-01-16 17:09:00,36.7,14.1,30.57,NW,318,0.0,1.0,39,0.00,,---,0.00,VWS V14.01,2013-01-17 00:09:00,
2013-01-16 17:10:00,36.7,14.1,30.57,NW,318,1.0,5.0,39,0.00,,---,0.00,VWS V14.01,2013-01-17 00:10:00,
2013-01-16 17:14:00,36.3,13.7,30.58,North,355,3.0,4.0,39,0.00,,---,0.00,VWS V14.01,2013-01-17 00:14:00,
2013-01-16 17:15:00,36.4,13.8,30.57,NNW,346,4.0,7.0,39,0.00,,---,0.00,VWS V14.01,2013-01-17 00:15:00,
2013-01-16 17:19:00,36.1,14.1,30.58,NNW,348,4.0,4.0,40,0.00,,---,0.00,VWS V14.01,2013-01-17 00:19:00,
2013-01-16 17:20:00,36.1,14.1,30.58,NNW,338,2.0,10.0,40,0.00,,---,0.00,VWS V14.01,2013-01-17 00:20:00,
2013-01-16 17:24:00,35.9,13.9,30.58,NNW,336,2.0,3.0,40,0.00,,---,0.00,VWS V14.01,2013-01-17 00:24:00,
2013-01-16 17:25:00,35.9,13.9,30.58,NNW,329,2.0,7.0,40,0.00,,---,0.00,VWS V14.01,2013-01-17 00:25:00,
2013-01-16 17:29:00,35.5,14.1,30.58,NNW,342,5.0,7.0,41,0.00,,---,0.00,VWS V14.01,2013-01-17 00:29:00,
2013-01-16 17:30:00,35.5,14.1,30.58,North,355,6.0,6.0,41,0.00,,---,0.00,VWS V14.01,2013-01-17 00:30:00,
2013-01-16 17:34:00,35.3,14.0,30.58,NNW,338,1.0,1.0,41,0.00,,---,0.00,VWS V14.01,2013-01-17 00:34:00,
2013-01-16 17:35:00,35.3,14.0,30.58,NNW,338,1.0,7.0,41,0.00,,---,0.00,VWS V14.01,2013-01-17 00:35:00,
2013-01-16 17:39:00,35.1,14.3,30.58,North,355,3.0,3.0,42,0.00,,---,0.00,VWS V14.01,2013-01-17 00:39:00,
2013-01-16 17:40:00,35.1,14.3,30.58,NNW,335,2.0,6.0,42,0.00,,---,0.00,VWS V14.01,2013-01-17 00:40:00,
2013-01-16 17:44:00,34.8,14.1,30.58,NNW,335,5.0,5.0,42,0.00,,---,0.00,VWS V14.01,2013-01-17 00:44:00,
2013-01-16 17:45:00,34.8,14.1,30.58,NNE,16,4.0,4.0,42,0.00,,---,0.00,VWS V14.01,2013-01-17 00:45:00,
2013-01-16 17:49:00,34.6,13.9,30.58,NNW,344,7.0,7.0,42,0.00,,---,0.00,VWS V14.01,2013-01-17 00:49:00,
2013-01-16 17:50:00,34.6,13.9,30.58,NNW,348,4.0,6.0,42,0.00,,---,0.00,VWS V14.01,2013-01-17 00:50:00,
2013-01-16 17:54:00,34.4,14.2,30.59,NNW,344,2.0,3.0,43,0.00,,---,0.00,VWS V14.01,2013-01-17 00:54:00,
2013-01-16 17:55:00,34.4,14.2,30.59,NNW,344,3.0,7.0,43,0.00,,---,0.00,VWS V14.01,2013-01-17 00:55:00,
2013-01-16 17:59:00,34.2,14.1,30.59,NNE,13,3.0,3.0,43,0.00,,---,0.00,VWS V14.01,2013-01-17 00:59:00,
2013-01-16 18:00:00,34.2,14.1,30.59,NNE,15,2.0,4.0,43,0.00,,---,0.00,VWS V14.01,2013-01-17 01:00:00,
2013-01-16 18:04:00,34.0,14.4,30.59,NNW,346,4.0,6.0,44,0.00,,---,0.00,VWS V14.01,2013-01-17 01:04:00,
2013-01-16 18:05:00,34.0,14.4,30.59,NNW,329,5.0,6.0,44,0.00,,---,0.00,VWS V14.01,2013-01-17 01:05:00,
2013-01-16 18:09:00,33.8,14.2,30.59,North,355,1.0,1.0,44,0.00,,---,0.00,VWS V14.01,2013-01-17 01:09:00,
2013-01-16 18:10:00,33.8,14.2,30.59,North,355,1.0,6.0,44,0.00,,---,0.00,VWS V14.01,2013-01-17 01:10:00,
2013-01-16 18:14:00,33.5,14.4,30.59,NW,315,1.0,4.0,45,0.00,,---,0.00,VWS V14.01,2013-01-17 01:14:00,
2013-01-16 18:15:00,33.5,14.4,30.60,NE,38,4.0,5.0,45,0.00,,---,0.00,VWS V14.01,2013-01-17 01:15:00,
2013-01-16 18:19:00,33.3,14.3,30.60,NNW,336,2.0,2.0,45,0.00,,---,0.00,VWS V14.01,2013-01-17 01:19:00,
2013-01-16 18:20:00,33.3,14.3,30.59,North,355,2.0,9.0,45,0.00,,---,0.00,VWS V14.01,2013-01-17 01:20:00,
2013-01-16 18:24:00,33.0,14.0,30.60,North,355,8.0,8.0,45,0.00,,---,0.00,VWS V14.01,2013-01-17 01:24:00,
2013-01-16 18:25:00,33.0,14.0,30.60,North,355,5.0,5.0,45,0.00,,---,0.00,VWS V14.01,2013-01-17 01:25:00,
2013-01-16 18:29:00,32.9,13.9,30.60,North,355,7.0,7.0,45,0.00,,---,0.00,VWS V14.01,2013-01-17 01:29:00,
2013-01-16 18:30:00,32.9,13.9,30.60,NNW,344,3.0,8.0,45,0.00,,---,0.00,VWS V14.01,2013-01-17 01:30:00,
2013-01-16 18:34:00,32.8,13.8,30.60,NNW,346,6.0,6.0,45,0.00,,---,0.00,VWS V14.01,2013-01-17 01:34:00,
2013-01-16 18:35:00,32.8,13.8,30.60,NW,324,2.0,7.0,45,0.00,,---,0.00,VWS V14.01,2013-01-17 01:35:00,
2013-01-16 18:39:00,32.7,13.2,30.60,North,9,2.0,2.0,44,0.00,,---,0.00,VWS V14.01,2013-01-17 01:39:00,
2013-01-16 18:40:00,32.7,13.2,30.60,NNE,32,1.0,6.0,44,0.00,,---,0.00,VWS V14.01,2013-01-17 01:40:00,
2013-01-16 18:44:00,32.5,13.5,30.60,NNW,338,6.0,6.0,45,0.00,,---,0.00,VWS V14.01,2013-01-17 01:44:00,
2013-01-16 18:45:00,32.5,13.5,30.60,North,360,3.0,6.0,45,0.00,,---,0.00,VWS V14.01,2013-01-17 01:45:00,
2013-01-16 18:49:00,32.3,13.4,30.61,NNW,329,1.0,3.0,45,0.00,,---,0.00,VWS V14.01,2013-01-17 01:49:00,
2013-01-16 18:50:00,32.3,13.4,30.60,North,355,3.0,6.0,45,0.00,,---,0.00,VWS V14.01,2013-01-17 01:50:00,
2013-01-16 18:54:00,32.2,13.3,30.61,North,355,2.0,3.0,45,0.00,,---,0.00,VWS V14.01,2013-01-17 01:54:00,
2013-01-16 18:55:00,32.2,13.3,30.61,NNW,345,3.0,10.0,45,0.00,,---,0.00,VWS V14.01,2013-01-17 01:55:00,
2013-01-16 18:59:00,32.0,13.1,30.61,NW,310,1.0,4.0,45,0.00,,---,0.00,VWS V14.01,2013-01-17 01:59:00,
2013-01-16 19:00:00,32.0,13.1,30.61,NW,310,4.0,8.0,45,0.00,,---,0.00,VWS V14.01,2013-01-17 02:00:00,
2013-01-16 19:04:00,31.8,12.9,30.61,North,360,4.0,4.0,45,0.00,,---,0.00,VWS V14.01,2013-01-17 02:04:00,
2013-01-16 19:05:00,31.8,12.9,30.61,North,350,3.0,8.0,45,0.00,,---,0.00,VWS V14.01,2013-01-17 02:05:00,
2013-01-16 19:09:00,31.7,12.8,30.61,NW,315,1.0,3.0,45,0.00,,---,0.00,VWS V14.01,2013-01-17 02:09:00,
2013-01-16 19:10:00,31.7,12.8,30.61,NNE,32,3.0,9.0,45,0.00,,---,0.00,VWS V14.01,2013-01-17 02:10:00,
2013-01-16 19:14:00,31.6,12.7,30.61,NNW,345,3.0,4.0,45,0.00,,---,0.00,VWS V14.01,2013-01-17 02:14:00,
2013-01-16 19:15:00,31.6,12.7,30.61,NW,325,3.0,7.0,45,0.00,,---,0.00,VWS V14.01,2013-01-17 02:15:00,
2013-01-16 19:19:00,31.5,12.6,30.61,NNW,341,3.0,3.0,45,0.00,,---,0.00,VWS V14.01,2013-01-17 02:19:00,
2013-01-16 19:20:00,31.5,12.6,30.61,NNW,331,2.0,5.0,45,0.00,,---,0.00,VWS V14.01,2013-01-17 02:20:00,
2013-01-16 19:24:00,31.1,12.8,30.61,NNW,329,0.0,1.0,46,0.00,,---,0.00,VWS V14.01,2013-01-17 02:24:00,
2013-01-16 19:25:00,31.2,12.4,30.61,NNW,329,1.0,3.0,45,0.00,,---,0.00,VWS V14.01,2013-01-17 02:25:00,
2013-01-16 19:29:00,31.0,12.7,30.61,NW,325,0.0,1.0,46,0.00,,---,0.00,VWS V14.01,2013-01-17 02:29:00,
2013-01-16 19:30:00,31.0,12.7,30.61,NW,325,0.0,2.0,46,0.00,,---,0.00,VWS V14.01,2013-01-17 02:30:00,
2013-01-16 19:34:00,30.8,13.0,30.61,NW,325,0.0,1.0,47,0.00,,---,0.00,VWS V14.01,2013-01-17 02:34:00,
2013-01-16 19:35:00,30.8,13.0,30.61,NW,325,1.0,2.0,47,0.00,,---,0.00,VWS V14.01,2013-01-17 02:35:00,
2013-01-16 19:39:00,30.6,12.8,30.62,NNW,338,0.0,0.0,47,0.00,,---,0.00,VWS V14.01,2013-01-17 02:39:00,
2013-01-16 19:40:00,30.6,12.8,30.61,NNW,338,0.0,3.0,47,0.00,,---,0.00,VWS V14.01,2013-01-17 02:40:00,
2013-01-16 19:44:00,30.4,13.1,30.62,NNW,338,0.0,0.0,48,0.00,,---,0.00,VWS V14.01,2013-01-17 02:44:00,
2013-01-16 19:45:00,30.4,13.1,30.62,NNW,338,0.0,1.0,48,0.00,,---,0.00,VWS V14.01,2013-01-17 02:45:00,
2013-01-16 19:49:00,30.1,12.8,30.62,NNW,338,0.0,0.0,48,0.00,,---,0.00,VWS V14.01,2013-01-17 02:49:00,
2013-01-16 19:50:00,30.1,12.8,30.62,NNW,338,0.0,0.0,48,0.00,,---,0.00,VWS V14.01,2013-01-17 02:50:00,
2013-01-16 19:54:00,29.7,12.9,30.62,NNW,338,0.0,0.0,49,0.00,,---,0.00,VWS V14.01,2013-01-17 02:54:00,
2013-01-16 19:55:00,29.7,12.4,30.62,NNW,338,0.0,0.0,48,0.00,,---,0.00,VWS V14.01,2013-01-17 02:55:00,
2013-01-16 19:59:00,29.4,12.6,30.62,NNW,338,0.0,0.0,49,0.00,,---,0.00,VWS V14.01,2013-01-17 02:59:00,
2013-01-16 20:00:00,29.4,12.6,30.62,NNW,338,0.0,0.0,49,0.00,,---,0.00,VWS V14.01,2013-01-17 03:00:00,
2013-01-16 20:04:00,29.0,12.7,30.62,NNW,338,0.0,0.0,50,0.00,,---,0.00,VWS V14.01,2013-01-17 03:04:00,
2013-01-16 20:05:00,29.0,12.7,30.62,NNW,338,0.0,2.0,50,0.00,,---,0.00,VWS V14.01,2013-01-17 03:05:00,
2013-01-16 20:09:00,29.0,13.1,30.62,NNW,338,1.0,1.0,51,0.00,,---,0.00,VWS V14.01,2013-01-17 03:09:00,
2013-01-16 20:10:00,29.0,13.1,30.62,NNW,338,0.0,2.0,51,0.00,,---,0.00,VWS V14.01,2013-01-17 03:10:00,
2013-01-16 20:14:00,29.0,13.1,30.62,NNW,338,0.0,0.0,51,0.00,,---,0.00,VWS V14.01,2013-01-17 03:14:00,
2013-01-16 20:15:00,29.0,13.1,30.62,NNW,338,0.0,2.0,51,0.00,,---,0.00,VWS V14.01,2013-01-17 03:15:00,
2013-01-16 20:19:00,28.8,13.4,30.62,NNW,338,2.0,2.0,52,0.00,,---,0.00,VWS V14.01,2013-01-17 03:19:00,
2013-01-16 20:20:00,28.8,13.4,30.62,NNW,338,1.0,2.0,52,0.00,,---,0.00,VWS V14.01,2013-01-17 03:20:00,
2013-01-16 20:24:00,28.7,13.3,30.62,NNW,327,1.0,1.0,52,0.00,,---,0.00,VWS V14.01,2013-01-17 03:24:00,
2013-01-16 20:25:00,28.7,13.3,30.62,NNW,327,1.0,4.0,52,0.00,,---,0.00,VWS V14.01,2013-01-17 03:25:00,
2013-01-16 20:29:00,28.9,13.1,30.62,NW,320,0.0,1.0,51,0.00,,---,0.00,VWS V14.01,2013-01-17 03:29:00,
2013-01-16 20:30:00,28.8,13.0,30.62,NW,320,1.0,5.0,51,0.00,,---,0.00,VWS V14.01,2013-01-17 03:30:00,
2013-01-16 20:34:00,29.0,13.1,30.62,NW,319,1.0,3.0,51,0.00,,---,0.00,VWS V14.01,2013-01-17 03:34:00,
2013-01-16 20:39:00,28.8,12.5,30.62,NNW,337,1.0,2.0,50,0.00,,---,0.00,VWS V14.01,2013-01-17 03:39:00,
2013-01-16 20:40:00,28.8,12.5,30.62,NNW,337,2.0,3.0,50,0.00,,---,0.00,VWS V14.01,2013-01-17 03:40:00,
2013-01-16 20:44:00,28.7,12.9,30.62,NNW,343,0.0,0.0,51,0.00,,---,0.00,VWS V14.01,2013-01-17 03:44:00,
2013-01-16 20:45:00,28.7,12.9,30.62,NNW,343,0.0,3.0,51,0.00,,---,0.00,VWS V14.01,2013-01-17 03:45:00,
2013-01-16 20:49:00,28.5,12.7,30.62,NW,324,0.0,1.0,51,0.00,,---,0.00,VWS V14.01,2013-01-17 03:49:00,
2013-01-16 20:50:00,28.5,12.7,30.62,NW,324,1.0,2.0,51,0.00,,---,0.00,VWS V14.01,2013-01-17 03:50:00,
2013-01-16 20:54:00,28.4,12.6,30.63,NNW,338,0.0,0.0,51,0.00,,---,0.00,VWS V14.01,2013-01-17 03:54:00,
2013-01-16 20:55:00,28.4,12.6,30.62,NNW,338,0.0,3.0,51,0.00,,---,0.00,VWS V14.01,2013-01-17 03:55:00,
2013-01-16 20:59:00,28.0,12.7,30.63,NW,321,0.0,0.0,52,0.00,,---,0.00,VWS V14.01,2013-01-17 03:59:00,
2013-01-16 21:00:00,28.0,12.7,30.63,NW,321,0.0,2.0,52,0.00,,---,0.00,VWS V14.01,2013-01-17 04:00:00,
2013-01-16 21:04:00,27.6,12.3,30.63,NW,321,0.0,0.0,52,0.00,,---,0.00,VWS V14.01,2013-01-17 04:04:00,
2013-01-16 21:05:00,27.6,12.3,30.63,NW,321,0.0,0.0,52,0.00,,---,0.00,VWS V14.01,2013-01-17 04:05:00,
2013-01-16 21:09:00,27.2,12.4,30.63,NW,321,0.0,0.0,53,0.00,,---,0.00,VWS V14.01,2013-01-17 04:09:00,
2013-01-16 21:10:00,27.2,12.4,30.63,NW,321,0.0,0.0,53,0.00,,---,0.00,VWS V14.01,2013-01-17 04:10:00,
2013-01-16 21:14:00,27.0,12.6,30.64,NW,321,0.0,0.0,54,0.00,,---,0.00,VWS V14.01,2013-01-17 04:14:00,
2013-01-16 21:15:00,27.0,12.6,30.64,NW,321,0.0,0.0,54,0.00,,---,0.00,VWS V14.01,2013-01-17 04:15:00,
2013-01-16 21:19:00,26.7,12.3,30.64,NW,321,0.0,0.0,54,0.00,,---,0.00,VWS V14.01,2013-01-17 04:19:00,
2013-01-16 21:24:00,26.7,12.3,30.64,NW,321,2.0,2.0,54,0.00,,---,0.00,VWS V14.01,2013-01-17 04:24:00,
2013-01-16 21:25:00,26.7,12.3,30.63,NW,321,1.0,2.0,54,0.00,,---,0.00,VWS V14.01,2013-01-17 04:25:00,
2013-01-16 21:29:00,27.0,12.6,30.64,NW,321,0.0,0.0,54,0.00,,---,0.00,VWS V14.01,2013-01-17 04:29:00,
2013-01-16 21:30:00,27.0,12.6,30.64,NW,321,0.0,2.0,54,0.00,,---,0.00,VWS V14.01,2013-01-17 04:30:00,
2013-01-16 21:34:00,27.0,12.6,30.64,NNW,337,1.0,1.0,54,0.00,,---,0.00,VWS V14.01,2013-01-17 04:34:00,
2013-01-16 21:35:00,27.0,12.6,30.64,NNW,337,1.0,2.0,54,0.00,,---,0.00,VWS V14.01,2013-01-17 04:35:00,
2013-01-16 21:39:00,27.1,12.7,30.64,NNE,28,0.0,0.0,54,0.00,,---,0.00,VWS V14.01,2013-01-17 04:39:00,
2013-01-16 21:40:00,27.1,12.7,30.64,NNE,28,0.0,2.0,54,0.00,,---,0.00,VWS V14.01,2013-01-17 04:40:00,
2013-01-16 21:44:00,27.2,12.8,30.63,NNE,19,0.0,5.0,54,0.00,,---,0.00,VWS V14.01,2013-01-17 04:44:00,
2013-01-16 21:45:00,27.2,12.8,30.63,NNE,19,0.0,5.0,54,0.00,,---,0.00,VWS V14.01,2013-01-17 04:45:00,
2013-01-16 21:49:00,27.3,12.4,30.64,North,5,0.0,0.0,53,0.00,,---,0.00,VWS V14.01,2013-01-17 04:49:00,
2013-01-16 21:50:00,27.3,12.4,30.64,North,5,0.0,2.0,53,0.00,,---,0.00,VWS V14.01,2013-01-17 04:50:00,
2013-01-16 21:54:00,27.2,11.9,30.63,ENE,65,0.0,1.0,52,0.00,,---,0.00,VWS V14.01,2013-01-17 04:54:00,
2013-01-16 21:55:00,27.2,11.9,30.63,ENE,65,1.0,2.0,52,0.00,,---,0.00,VWS V14.01,2013-01-17 04:55:00,
2013-01-16 21:59:00,27.2,11.9,30.63,North,5,1.0,1.0,52,0.00,,---,0.00,VWS V14.01,2013-01-17 04:59:00,
2013-01-16 22:00:00,27.2,11.9,30.63,North,5,1.0,3.0,52,0.00,,---,0.00,VWS V14.01,2013-01-17 05:00:00,
2013-01-16 22:01:00,27.2,11.9,30.63,North,5,0.0,2.0,52,0.00,,---,0.00,VWS V14.01,2013-01-17 05:01:00,
2013-01-16 22:03:00,27.1,12.2,30.63,North,355,0.0,2.0,53,0.00,,---,0.00,VWS V14.01,2013-01-17 05:03:00,
2013-01-16 22:05:00,27.1,11.8,30.63,North,355,0.0,2.0,52,0.00,,---,0.00,VWS V14.01,2013-01-17 05:05:00,
2013-01-16 22:08:00,27.0,12.2,30.64,North,355,0.0,2.0,53,0.00,,---,0.00,VWS V14.01,2013-01-17 05:08:00,
2013-01-16 22:10:00,27.0,12.2,30.64,North,355,0.0,2.0,53,0.00,,---,0.00,VWS V14.01,2013-01-17 05:10:00,
2013-01-16 22:13:00,26.6,11.8,30.64,North,355,0.0,0.0,53,0.00,,---,0.00,VWS V14.01,2013-01-17 05:13:00,
2013-01-16 22:15:00,26.5,11.7,30.64,North,355,0.0,0.0,53,0.00,,---,0.00,VWS V14.01,2013-01-17 05:15:00,
2013-01-16 22:18:00,26.4,12.0,30.64,North,355,0.0,0.0,54,0.00,,---,0.00,VWS V14.01,2013-01-17 05:18:00,
2013-01-16 22:20:00,26.3,11.9,30.64,North,355,0.0,0.0,54,0.00,,---,0.00,VWS V14.01,2013-01-17 05:20:00,
2013-01-16 22:23:00,26.2,11.8,30.64,North,355,0.0,0.0,54,0.00,,---,0.00,VWS V14.01,2013-01-17 05:23:00,
2013-01-16 22:25:00,26.1,12.2,30.64,North,355,0.0,0.0,55,0.00,,---,0.00,VWS V14.01,2013-01-17 05:25:00,
2013-01-16 22:28:00,25.9,12.0,30.64,North,355,0.0,0.0,55,0.00,,---,0.00,VWS V14.01,2013-01-17 05:28:00,
2013-01-16 22:30:00,25.9,12.0,30.64,North,355,0.0,0.0,55,0.00,,---,0.00,VWS V14.01,2013-01-17 05:30:00,
2013-01-16 22:33:00,25.8,11.9,30.64,North,355,0.0,0.0,55,0.00,,---,0.00,VWS V14.01,2013-01-17 05:33:00,
2013-01-16 22:35:00,25.7,11.8,30.64,North,355,0.0,0.0,55,0.00,,---,0.00,VWS V14.01,2013-01-17 05:35:00,
2013-01-16 22:38:00,25.6,11.7,30.65,North,355,0.0,0.0,55,0.00,,---,0.00,VWS V14.01,2013-01-17 05:38:00,
2013-01-16 22:40:00,25.5,11.6,30.64,North,355,0.0,0.0,55,0.00,,---,0.00,VWS V14.01,2013-01-17 05:40:00,
2013-01-16 22:43:00,25.2,11.7,30.64,North,355,0.0,1.0,56,0.00,,---,0.00,VWS V14.01,2013-01-17 05:43:00,
2013-01-16 22:45:00,25.2,11.7,30.64,North,355,0.0,1.0,56,0.00,,---,0.00,VWS V14.01,2013-01-17 05:45:00,
2013-01-16 22:48:00,25.3,11.8,30.65,North,355,0.0,0.0,56,0.00,,---,0.00,VWS V14.01,2013-01-17 05:48:00,
2013-01-16 22:50:00,25.3,11.8,30.65,North,355,3.0,3.0,56,0.00,,---,0.00,VWS V14.01,2013-01-17 05:50:00,
2013-01-16 22:53:00,25.5,12.0,30.65,North,355,0.0,3.0,56,0.00,,---,0.00,VWS V14.01,2013-01-17 05:53:00,
2013-01-16 22:55:00,25.6,12.1,30.65,North,355,0.0,3.0,56,0.00,,---,0.00,VWS V14.01,2013-01-17 05:55:00,
2013-01-16 22:58:00,25.3,11.8,30.65,North,355,0.0,0.0,56,0.00,,---,0.00,VWS V14.01,2013-01-17 05:58:00,
2013-01-16 23:00:00,25.2,11.7,30.65,North,355,0.0,0.0,56,0.00,,---,0.00,VWS V14.01,2013-01-17 06:00:00,
2013-01-16 23:03:00,25.2,12.1,30.65,North,355,0.0,0.0,57,0.00,,---,0.00,VWS V14.01,2013-01-17 06:03:00,
2013-01-16 23:05:00,25.2,12.1,30.65,North,355,0.0,0.0,57,0.00,,---,0.00,VWS V14.01,2013-01-17 06:05:00,
2013-01-16 23:08:00,25.1,11.6,30.65,North,355,0.0,0.0,56,0.00,,---,0.00,VWS V14.01,2013-01-17 06:08:00,
2013-01-16 23:10:00,24.9,11.8,30.65,North,355,0.0,0.0,57,0.00,,---,0.00,VWS V14.01,2013-01-17 06:10:00,
2013-01-16 23:13:00,24.7,12.0,30.65,North,355,1.0,1.0,58,0.00,,---,0.00,VWS V14.01,2013-01-17 06:13:00,
2013-01-16 23:15:00,24.7,12.0,30.65,North,355,0.0,2.0,58,0.00,,---,0.00,VWS V14.01,2013-01-17 06:15:00,
2013-01-16 23:18:00,24.8,12.1,30.65,North,355,0.0,1.0,58,0.00,,---,0.00,VWS V14.01,2013-01-17 06:18:00,
2013-01-16 23:20:00,24.8,12.1,30.65,North,355,0.0,1.0,58,0.00,,---,0.00,VWS V14.01,2013-01-17 06:20:00,
2013-01-16 23:23:00,24.5,11.9,30.65,North,355,0.0,0.0,58,0.00,,---,0.00,VWS V14.01,2013-01-17 06:23:00,
2013-01-16 23:25:00,24.5,11.9,30.65,North,355,0.0,0.0,58,0.00,,---,0.00,VWS V14.01,2013-01-17 06:25:00,
2013-01-16 23:28:00,24.3,12.1,30.65,North,355,0.0,0.0,59,0.00,,---,0.00,VWS V14.01,2013-01-17 06:28:00,
2013-01-16 23:30:00,24.3,12.1,30.65,North,355,1.0,1.0,59,0.00,,---,0.00,VWS V14.01,2013-01-17 06:30:00,
2013-01-16 23:33:00,24.3,12.1,30.65,North,355,0.0,1.0,59,0.00,,---,0.00,VWS V14.01,2013-01-17 06:33:00,
2013-01-16 23:35:00,24.4,12.1,30.65,North,355,1.0,1.0,59,0.00,,---,0.00,VWS V14.01,2013-01-17 06:35:00,
2013-01-16 23:38:00,24.4,12.1,30.65,North,355,0.0,2.0,59,0.00,,---,0.00,VWS V14.01,2013-01-17 06:38:00,
2013-01-16 23:40:00,24.4,12.1,30.65,North,355,0.0,2.0,59,0.00,,---,0.00,VWS V14.01,2013-01-17 06:40:00,
2013-01-16 23:43:00,24.3,12.1,30.65,North,355,0.0,0.0,59,0.00,,---,0.00,VWS V14.01,2013-01-17 06:43:00,
2013-01-16 23:45:00,24.2,11.9,30.65,North,355,0.0,0.0,59,0.00,,---,0.00,VWS V14.01,2013-01-17 06:45:00,
2013-01-16 23:48:00,24.2,12.3,30.66,North,355,0.0,0.0,60,0.00,,---,0.00,VWS V14.01,2013-01-17 06:48:00,
2013-01-16 23:50:00,24.2,12.3,30.66,North,355,0.0,1.0,60,0.00,,---,0.00,VWS V14.01,2013-01-17 06:50:00,
2013-01-16 23:53:00,24.1,12.2,30.66,North,355,0.0,0.0,60,0.00,,---,0.00,VWS V14.01,2013-01-17 06:53:00,
2013-01-16 23:55:00,24.1,12.2,30.66,North,355,1.0,1.0,60,0.00,,---,0.00,VWS V14.01,2013-01-17 06:55:00,
2013-01-16 23:58:00,24.0,12.1,30.66,North,355,1.0,2.0,60,0.00,,---,0.00,VWS V14.01,2013-01-17 06:58:00,